Location: Bannatyne
(13.0833°N, 59.5333°W)
Time: 07:46:58
(UTC+00:00)

Vanguard 3 - Pass Details

Date: 30 January 2020
Orbit: 508 x 3263 km, 33.3° (Epoch: 17 February)

Event Time Altitude Azimuth Distance (km) Brightness Sun altitude
Rises 15:51:24 0° 212° (SSW) 4,428 11.3 58.8°
Reaches altitude 10° 15:54:06 10° 204° (SSW) 3,766 11.1 58.9°
Maximum altitude 16:04:00 43° 136° (SE) 2,899 11.2 59.2°
Drops below altitude 10° 16:19:45 10° 71° (ENE) 5,906 11.5 59.2°
Sets 16:25:13 0° 66° (ENE) 7,126 11.8 59.1°
